Regional Weather Roundup
Issued by NWS Newport/Morehead, NC

Current Version | Previous Version | Text Only | Print | Product List | Glossary On
Versions: 1 2 3 4 5 6 7 8 9 10 11 12 13 14 15 16 17 18 19 20 21 22 23 24 25 26 27 28 29 30 31 32 33 34 35 36 37 38 39 40 41 42 43 44 45 46 47 48 49 50
000
ASUS42 KMHX 200310
RWRMHX
WEATHER ROUNDUP FOR EASTERN NORTH CAROLINA
NATIONAL WEATHER SERVICE NEWPORT/MOREHEAD CITY NC
1100 PM EDT SUN OCT 19 2014

NOTE: "FAIR" INDICATES FEW OR NO CLOUDS BELOW 12,000 FEET
WITH NO SIGNIFICANT WEATHER AND/OR OBSTRUCTIONS TO VISIBILITY

NCZ015>017-031-032-045>047-102-103-200400-
NORTH COAST

CITY           SKY/WX    TMP DP  RH WIND       PRES   REMARKS
EDENTON        CLEAR     44  42  90 CALM      30.14S
ELIZABETH CITY PTCLDY    46  41  82 SW3       30.14R
KITTY HAWK     CLEAR     56  36  46 NW3       30.12R
MANTEO         CLEAR     56  34  42 CALM      30.13S

$$

NCZ045>047-081-094-103-104-200400-
CENTRAL COAST

CITY           SKY/WX    TMP DP  RH WIND       PRES   REMARKS
FRISCO         CLEAR     58  37  45 N5        30.12S
SWANQUARTER      N/A     48 N/A N/A NE1       30.09S

$$

NCZ095-097-098-100-101-200400-
SOUTHERN COAST

CITY           SKY/WX    TMP DP  RH WIND       PRES   REMARKS
BEAUFORT       CLEAR     50  44  80 CALM      30.14R
CEDAR ISLAND     N/A     61 N/A N/A N14       30.18R
JACKSONVILLE   CLEAR     49  47  93 CALM      30.14R
PINEY ISLAND   CLEAR     60  42  51 N7        30.13R
WILMINGTON     CLEAR     50  47  89 CALM      30.15R


$$

NCZ011>013-027>030-043-044-078>080-089-090>093-098-200400-
COASTAL PLAIN

CITY           SKY/WX    TMP DP  RH WIND       PRES   REMARKS
AHOSKIE        PTCLDY    42  41  96 CALM      30.14S
CLINTON        CLEAR     47  47  97 CALM      30.15R
ELIZABETHTOWN  CLEAR     49  46  89 CALM      30.14R
GOLDSBORO      CLEAR     47  47  98 CALM      30.13R
GREENVILLE       N/A     46  46 100 CALM      30.15S FOG
HAVELOCK       CLEAR     50  46  86 CALM      30.15R
KENANSVILLE    CLEAR     44  43  97 CALM      30.16R
KINSTON        CLEAR     44  43  97 CALM      30.15S
NEW BERN       CLEAR     49  44  83 CALM      30.16R
RICHLANDS      CLEAR     45  41  87 CALM      30.15R
ROCKY MOUNT    CLEAR     43  42  97 CALM      30.14R
WASHINGTON     CLEAR     46  44  93 CALM      30.14S
WHITEVILLE     CLEAR     49  47  93 CALM      30.14R

$$

AMZ130-135-150-152-154-156-158-170-250-252-270-ANZ085-086-088-633-658-670-200400-
MARINE OBSERVATIONS

STATION/POSITION TIME  TEMP    WIND        PRES    WAVE   SWELL
                       AIR SEA DIR/SP/G            HT/PER HT/PER
                 (UTC) (F)     (DEG/KT/KT) (MB)    (FT/S) (FT/S)
CHESAPEAKE LIGHT 0200   60     330/ 15/ 17 1020.2
64 E VA BEACH    0300   60 69  340/ 16/ 19 1019.1    6/ 6   2/14
DUCK             0300   59 69  320/  9/ 11 1019.4
2 E DUCK         0300                        N/A     4/ 7   2/13
10 NE DUCK       0300      71                N/A     4/ 6   2/13
OREGON INLET     0300   57 70  320/  5/ 10 1020.1
13E OREGON INLT  0300      74                N/A     5/14   2/14
HATTERAS CG      0300   62 68  350/ 13/ 16 1020.4
DIAMOND BUOY     0300   62     350/ 16/ 19 1019.7    4/ 8   3/ 8
17 S OCRACOKE    0200          VRB 12/ 16  1019.7
CAPE LOOKOUT     0200   61     360/  8/ 10 1020.1
BEAUFORT LAB     0300   56 69   20/  2/  4 1019.7
30 SE NEW RIVER  0300   65 76   30/  8/ 14 1019.9    2/11   2/11
5 SE WRIGHTSVLE  0200   62 73   30/ 12/ 14   N/A
225 S CAPE HAT   0201   70 80   30/ 12/ 16 1019.3    6/ 8   5/ 8
41 SE CHARLESTON 0300   69 80   50/  8/ 12 1019.7    3/12   3/12

$$


USA.gov is the U.S. government's official web portal to all federal, state and local government web resources and services.